This demonstration page uses our WeatherBlox Daily Observations layout. Learn more.

Left ArrowRight Arrow

Hourly Observations for December 21, 2020

Temp ( °F °C ) Dew Point ( °F °C ) Humidity (%) Winds ( mph kmh ) Pressure ( in mb ) Visibility ( mi km ) Precip ( " mm )
12:54 am 00:54 Clear 45 7.2 28 -2.2 52 52 WNW 15 24 29.79 1009 10 16.0934 0 0
1:54 am 01:54 Clear 47 8.3 28 -2.2 48 48 WNW 16 26 29.81 1010 10 16.0934 0 0
2:54 am 02:54 Mostly Clear 47 8.3 29 -1.7 50 50 WNW 16 26 29.84 1011 10 16.0934 0 0
3:54 am 03:54 Clear 46 7.8 30 -1.1 54 54 NW 17 28 29.87 1012 10 16.0934 0 0
4:54 am 04:54 Partly Cloudy 47 8.3 30 -1.1 52 52 NW 21 33 29.91 1013 10 16.0934 0 0
5:54 am 05:54 Cloudy 46 7.8 30 -1.1 54 54 NW 18 30 29.94 1014 10 16.0934 0 0
6:54 am 06:54 Partly Cloudy 43 6.1 29 -1.7 58 58 NW 8 13 29.97 1015 10 16.0934 0 0
7:54 am 07:54 Sunny 41 5 28 -2.2 60 60 WNW 6 9 30 1016 10 16.0934 0 0
8:54 am 08:54 Sunny 42 5.6 28 -2.2 58 58 W 7 11 30.02 1017 10 16.0934 0 0
9:54 am 09:54 Sunny 47 8.3 28 -2.2 48 48 WNW 14 22 30.04 1017 10 16.0934 0 0
10:54 am 10:54 Sunny 50 10 28 -2.2 43 43 WNW 16 26 30.06 1018 10 16.0934 0 0
11:54 am 11:54 Sunny 52 11.1 25 -3.9 35 35 W 17 28 30.06 1018 10 16.0934 0 0
12:54 pm 12:54 Sunny 53 11.7 30 -1.1 41 41 WNW 16 26 30.05 1018 10 16.0934 0 0
1:54 pm 13:54 Sunny 53 11.7 30 -1.1 41 41 WNW 18 30 30.05 1018 10 16.0934 0 0
2:54 pm 14:54 Sunny 54 12.2 30 -1.1 40 40 NW 10 17 30.06 1018 10 16.0934 0 0
3:54 pm 15:54 Sunny 54 12.2 27 -2.8 35 35 W 8 13 30.08 1019 10 16.0934 0 0
4:54 pm 16:54 Sunny 50 10 32 0 50 50 W 8 13 30.09 1019 10 16.0934 0 0
5:54 pm 17:54 Clear 45 7.2 32 0 61 61 W 8 13 30.13 1020 10 16.0934 0 0
6:54 pm 18:54 Clear 43 6.1 32 0 65 65 W 6 9 30.14 1021 10 16.0934 0 0
7:54 pm 19:54 Clear 33 0.6 27 -2.8 78 78 Calm 30.17 1022 10 16.0934 0 0
8:54 pm 20:54 Mostly Clear 34 1.1 28 -2.2 79 79 N 5 7 30.16 1021 10 16.0934 0 0
9:54 pm 21:54 Clear 32 0 28 -2.2 85 85 Calm 30.17 1022 10 16.0934 0 0
10:54 pm 22:54 Clear 28 -2.2 25 -3.9 88 88 Calm 30.17 1022 10 16.0934 0 0
11:54 pm 23:54 Clear 28 -2.2 23 -5 81 81 Calm 30.16 1022 10 16.0934 0 0

Powered by AerisWeather